Location: Casteau
(50.5142°N, 4.0161°E)
Time: 20:30:01
(UTC+00:00)

Transit 2A - Pass Details

Date: 01 August 2021
Orbit: 594 x 964 km, 66.7° (Epoch: 27 September)

Event Time Altitude Azimuth Distance (km) Brightness Sun altitude
Rises 12:10:10 0° 322° (NW) 3,112 8.9 57.1°
Reaches altitude 10° 12:12:55 10° 338° (NNW) 2,255 8.3 57.1°
Maximum altitude 12:17:00 23° 30° (NNE) 1,639 7.7 56.9°
Drops below altitude 10° 12:21:22 10° 81° (E) 2,449 8.6 56.8°
Sets 12:24:29 0° 96° (E) 3,450 9.3 56.7°
